Location: Ar Ranvel
(48.3000°N, 4.8833°W)
Time: 09:50:37
(UTC+00:00)

GEOS 3 Rocket - Pass Details

Date: 16 June 2021
Orbit: 779 x 840 km, 115.0° (Epoch: 27 July)

Event Time Altitude Azimuth Distance (km) Brightness Sun altitude
Exits shadow 22:36:03 18° 130° (SE) 1,929 5.0 -14.6°
Maximum altitude 22:40:03 76° 47° (NE) 866 3.8 -14.9°
Drops below altitude 10° 22:45:23 10° 322° (NW) 2,451 7.4 -15.2°
Sets 22:47:42 0° 321° (NW) 3,382 8.3 -15.4°
